AZA631 KMIA-LIRF

Flight info

Callsign AZA631
Flight time N/A
Altitude 35000
Route FOLZZ3 SUMRS/M082F350 M204 FLUPS DCT NOSID DCT SOORY/M082F370 DCT 43N050W 46N040W 49N030W 50N020W DCT SOMAX DCT ATSUR DCT TAKAS/N0467F370 DCT ALUTA/N0464F390 DCT KORER DCT LEMKA DCT BEBIX/N0472F400 DCT VALKU/N0468F390 DCT TIS DCT MEBAK DCT GIPNO DCT BALSI DCT OBIGO DCT ROBEX DCT LAPRI/N0473F400 DCT MOGBO/N0466F390 DCT ELB/N0470F400 DCT ELKAP
Aircraft B772/H-SDE2E3FGHIJ5LORVWXY/LB1D1

Departure

Time 2026-05-08 02:19
Airport Miami International Airport (KMIA)

Arrival

Time N/A
Airport Rome–Fiumicino Leonardo da Vinci International Airport (LIRF)
Time Latitude Longitude Altitude Speed Heading
2026-05-08 01:36 25.79010 -80.27343 19 ft 0 kts
2026-05-08 02:03 25.78998 -80.27343 21 ft 4 kts
2026-05-08 02:03 25.78971 -80.27344 23 ft 4 kts
2026-05-08 02:04 25.78946 -80.27344 23 ft 4 kts 350°
2026-05-08 02:04 25.78928 -80.27333 23 ft 4 kts 284°
2026-05-08 02:04 25.78927 -80.27304 24 ft 3 kts 267°
2026-05-08 02:04 25.78927 -80.27295 24 ft 0 kts 267°
2026-05-08 02:10 25.78927 -80.27299 20 ft 4 kts 267°
2026-05-08 02:10 25.78925 -80.27339 19 ft 5 kts 267°
2026-05-08 02:11 25.78924 -80.27380 19 ft 5 kts 267°
2026-05-08 02:11 25.78922 -80.27420 19 ft 5 kts 267°
2026-05-08 02:11 25.78917 -80.27461 19 ft 5 kts 256°
2026-05-08 02:11 25.78909 -80.27501 19 ft 5 kts 257°
2026-05-08 02:12 25.78901 -80.27541 19 ft 5 kts 259°
2026-05-08 02:12 25.78893 -80.27588 19 ft 10 kts 259°
2026-05-08 02:12 25.78880 -80.27681 19 ft 13 kts 266°
2026-05-08 02:12 25.78874 -80.27778 19 ft 13 kts 266°
2026-05-08 02:13 25.78869 -80.27890 22 ft 18 kts 267°
2026-05-08 02:13 25.78910 -80.28025 22 ft 19 kts 300°
2026-05-08 02:13 25.78977 -80.28154 20 ft 19 kts 300°
2026-05-08 02:13 25.79044 -80.28284 20 ft 19 kts 300°
2026-05-08 02:14 25.79110 -80.28412 19 ft 19 kts 300°
2026-05-08 02:14 25.79191 -80.28530 19 ft 19 kts 301°
2026-05-08 02:14 25.79253 -80.28663 19 ft 19 kts 297°
2026-05-08 02:14 25.79319 -80.28793 19 ft 19 kts 301°
2026-05-08 02:15 25.79385 -80.28923 19 ft 19 kts 299°
2026-05-08 02:15 25.79450 -80.29053 19 ft 19 kts 300°
2026-05-08 02:15 25.79518 -80.29182 19 ft 19 kts 299°
2026-05-08 02:15 25.79584 -80.29312 20 ft 19 kts 300°
2026-05-08 02:16 25.79651 -80.29441 19 ft 19 kts 300°
2026-05-08 02:16 25.79718 -80.29571 19 ft 19 kts 300°
2026-05-08 02:16 25.79784 -80.29700 18 ft 19 kts 300°
2026-05-08 02:16 25.79851 -80.29830 18 ft 19 kts 300°
2026-05-08 02:17 25.79918 -80.29959 18 ft 19 kts 298°
2026-05-08 02:17 25.79972 -80.30073 18 ft 16 kts 298°
2026-05-08 02:17 25.80043 -80.30118 18 ft 13 kts 19°
2026-05-08 02:17 25.80075 -80.30030 17 ft 13 kts 87°
2026-05-08 02:18 25.80076 -80.30015 17 ft 0 kts 88°
2026-05-08 02:18 25.80077 -80.29980 17 ft 17 kts 88°
2026-05-08 02:18 25.80094 -80.29555 18 ft 100 kts 87°
2026-05-08 02:18 25.80137 -80.28490 44 ft 174 kts 88°
2026-05-08 02:19 25.80204 -80.27147 946 ft 173 kts 87°
2026-05-08 02:19 25.80256 -80.25752 1737 ft 186 kts 99°
2026-05-08 02:19 25.79752 -80.24342 2063 ft 209 kts 120°
2026-05-08 02:19 25.79049 -80.22871 2446 ft 220 kts 118°
2026-05-08 02:20 25.78335 -80.21339 2957 ft 228 kts 117°
2026-05-08 02:20 25.77591 -80.19710 3362 ft 245 kts 117°
2026-05-08 02:20 25.76814 -80.18029 4232 ft 245 kts 119°
2026-05-08 02:20 25.75983 -80.16340 4636 ft 254 kts 118°
2026-05-08 02:21 25.75120 -80.14600 5274 ft 260 kts 118°
2026-05-08 02:21 25.74285 -80.12775 5709 ft 271 kts 107°
2026-05-08 02:21 25.74201 -80.10689 6217 ft 278 kts 74°
2026-05-08 02:21 25.75133 -80.08814 7045 ft 282 kts 50°
2026-05-08 02:22 25.76434 -80.07152 7380 ft 285 kts 49°
2026-05-08 02:22 25.77745 -80.05511 8169 ft 284 kts 49°
2026-05-08 02:22 25.79068 -80.03861 8858 ft 287 kts 49°
2026-05-08 02:22 25.80402 -80.02195 9544 ft 290 kts 49°
2026-05-08 02:23 25.81746 -80.00510 10214 ft 293 kts 49°
2026-05-08 02:23 25.83128 -79.98770 10514 ft 310 kts 49°
2026-05-08 02:23 25.84600 -79.96912 10679 ft 331 kts 49°
2026-05-08 02:23 25.86138 -79.94965 10961 ft 346 kts 49°
2026-05-08 02:24 25.87751 -79.92919 11428 ft 357 kts 49°
2026-05-08 02:24 25.89399 -79.90826 12084 ft 360 kts 49°
2026-05-08 02:24 25.91056 -79.88719 12764 ft 364 kts 48°
2026-05-08 02:24 25.92732 -79.86586 13389 ft 369 kts 48°
2026-05-08 02:25 25.94432 -79.84421 14016 ft 374 kts 48°
2026-05-08 02:25 25.96150 -79.82232 14647 ft 377 kts 47°
2026-05-08 02:25 25.97882 -79.80024 15289 ft 380 kts 47°
2026-05-08 02:25 25.99626 -79.77799 15911 ft 383 kts 47°
2026-05-08 02:26 26.01382 -79.75557 16518 ft 387 kts 47°
2026-05-08 02:26 26.03155 -79.73292 17125 ft 390 kts 47°
2026-05-08 02:26 26.04948 -79.71002 17720 ft 394 kts 46°
2026-05-08 02:26 26.06753 -79.68694 18301 ft 397 kts 46°
2026-05-08 02:27 26.08577 -79.66361 18798 ft 401 kts 46°
2026-05-08 02:27 26.10417 -79.64008 19249 ft 406 kts 46°
2026-05-08 02:27 26.12189 -79.61541 19685 ft 412 kts 51°
2026-05-08 02:27 26.13836 -79.58952 20131 ft 416 kts 53°
2026-05-08 02:28 26.15474 -79.56276 20577 ft 420 kts 53°
2026-05-08 02:28 26.17127 -79.53579 21027 ft 424 kts 52°
2026-05-08 02:28 26.18811 -79.50867 21452 ft 428 kts 52°
2026-05-08 02:28 26.20533 -79.48127 21813 ft 433 kts 51°
2026-05-08 02:29 26.22275 -79.45374 22243 ft 437 kts 51°
2026-05-08 02:29 26.24034 -79.42599 22683 ft 440 kts 51°
2026-05-08 02:29 26.25806 -79.39802 23119 ft 443 kts 51°
2026-05-08 02:29 26.27588 -79.36987 23548 ft 445 kts 51°
2026-05-08 02:30 26.29546 -79.34352 23840 ft 441 kts 37°
2026-05-08 02:30 26.32029 -79.32406 24033 ft 435 kts 27°
2026-05-08 02:30 26.34628 -79.30634 24305 ft 440 kts 27°
2026-05-08 02:30 26.37251 -79.28848 24696 ft 442 kts 27°
2026-05-08 02:31 26.39870 -79.27044 25115 ft 443 kts 27°
2026-05-08 02:31 26.42483 -79.25222 25495 ft 445 kts 28°
2026-05-08 02:31 26.45115 -79.23367 25842 ft 448 kts 28°
2026-05-08 02:31 26.47754 -79.21493 26192 ft 452 kts 28°
2026-05-08 02:32 26.50417 -79.19595 26524 ft 455 kts 28°
2026-05-08 02:32 26.53093 -79.17682 26888 ft 458 kts 28°
2026-05-08 02:32 26.55785 -79.15756 27257 ft 460 kts 28°
2026-05-08 02:32 26.58485 -79.13824 27617 ft 462 kts 28°
2026-05-08 02:33 26.61163 -79.11906 27981 ft 464 kts 28°
2026-05-08 02:33 26.63891 -79.09952 28350 ft 466 kts 28°
2026-05-08 02:33 26.66631 -79.07989 28729 ft 469 kts 28°
2026-05-08 02:33 26.69384 -79.06016 29077 ft 471 kts 28°
2026-05-08 02:34 26.72150 -79.04033 29428 ft 473 kts 28°
2026-05-08 02:34 26.74926 -79.02040 29818 ft 475 kts 28°
2026-05-08 02:34 26.77728 -79.00029 30109 ft 479 kts 28°
2026-05-08 02:34 26.80474 -78.98056 30389 ft 481 kts 28°
2026-05-08 02:35 26.83303 -78.96022 30712 ft 482 kts 28°
2026-05-08 02:35 26.86131 -78.93988 31036 ft 484 kts 28°
2026-05-08 02:35 26.88973 -78.91942 31328 ft 486 kts 28°
2026-05-08 02:35 26.91823 -78.89890 31602 ft 488 kts 28°
2026-05-08 02:36 26.94689 -78.87824 31866 ft 490 kts 28°
2026-05-08 02:36 26.97527 -78.85778 32125 ft 492 kts 28°
2026-05-08 02:36 27.00406 -78.83701 32383 ft 493 kts 28°
2026-05-08 02:36 27.03295 -78.81615 32638 ft 495 kts 28°
2026-05-08 02:37 27.06203 -78.79515 32807 ft 498 kts 28°
2026-05-08 02:37 27.09121 -78.77405 33043 ft 499 kts 28°
2026-05-08 02:37 27.12046 -78.75289 33314 ft 500 kts 28°
2026-05-08 02:37 27.14969 -78.73172 33592 ft 500 kts 28°
2026-05-08 02:38 27.17891 -78.71054 33910 ft 499 kts 28°
2026-05-08 02:38 27.20810 -78.68938 34228 ft 497 kts 28°
2026-05-08 02:38 27.23712 -78.66833 34535 ft 495 kts 28°
2026-05-08 02:38 27.26600 -78.64738 34850 ft 494 kts 28°
2026-05-08 02:39 27.29378 -78.62429 34974 ft 502 kts 41°
2026-05-08 02:39 27.31646 -78.59479 35062 ft 507 kts 47°
2026-05-08 02:39 27.35958 -78.53109 35062 ft 513 kts 49°
2026-05-08 02:40 27.40258 -78.46722 35054 ft 511 kts 49°
2026-05-08 02:40 27.44622 -78.40409 35054 ft 510 kts 48°
2026-05-08 02:41 27.49011 -78.34143 35053 ft 508 kts 47°
2026-05-08 02:41 27.53386 -78.27901 35052 ft 507 kts 47°
2026-05-08 02:42 27.57744 -78.21664 35070 ft 506 kts 47°
2026-05-08 02:42 27.62099 -78.15415 35061 ft 506 kts 47°
2026-05-08 02:43 27.66451 -78.09161 35056 ft 507 kts 47°
2026-05-08 02:43 27.70811 -78.02886 35053 ft 508 kts 47°
2026-05-08 02:44 27.75099 -77.96706 35052 ft 509 kts 47°
2026-05-08 02:44 27.79463 -77.90407 35053 ft 509 kts 47°
2026-05-08 02:45 27.83119 -77.85122 35063 ft 510 kts 47°
2026-05-08 02:45 27.87491 -77.78796 35051 ft 511 kts 47°
2026-05-08 02:46 27.91835 -77.72499 35054 ft 511 kts 47°
2026-05-08 02:46 27.96209 -77.66150 35052 ft 512 kts 47°
2026-05-08 02:47 28.00575 -77.59803 35049 ft 512 kts 47°
2026-05-08 02:47 28.04949 -77.53436 35054 ft 511 kts 47°
2026-05-08 02:48 28.09317 -77.47068 35066 ft 511 kts 47°
2026-05-08 02:48 28.13684 -77.40691 35058 ft 512 kts 47°
2026-05-08 02:49 28.18051 -77.34306 35057 ft 512 kts 47°
2026-05-08 02:49 28.22387 -77.27956 35054 ft 513 kts 47°
2026-05-08 02:50 28.26780 -77.21513 35056 ft 513 kts 47°
2026-05-08 02:50 28.31113 -77.15148 35051 ft 513 kts 47°
2026-05-08 02:51 28.35475 -77.08731 35066 ft 513 kts 47°
2026-05-08 02:51 28.39836 -77.02307 35066 ft 514 kts 47°
2026-05-08 02:52 28.44152 -76.95939 35045 ft 514 kts 47°
2026-05-08 02:52 28.48518 -76.89486 35046 ft 515 kts 47°
2026-05-08 02:53 28.52884 -76.83023 35052 ft 515 kts 47°
2026-05-08 02:53 28.57249 -76.76551 35044 ft 515 kts 47°
2026-05-08 02:54 28.61613 -76.70073 35049 ft 516 kts 47°
2026-05-08 02:54 28.65948 -76.63625 35053 ft 516 kts 47°
2026-05-08 02:55 28.72507 -76.53888 35049 ft 516 kts 46°
2026-05-08 02:56 28.77091 -76.47623 35052 ft 514 kts 44°
2026-05-08 02:56 28.81755 -76.41445 35044 ft 514 kts 44°
2026-05-08 02:57 28.86399 -76.35223 35056 ft 515 kts 44°
2026-05-08 02:57 28.90989 -76.29002 35048 ft 516 kts 44°
2026-05-08 02:58 28.95605 -76.22712 35043 ft 517 kts 44°
2026-05-08 02:58 29.00220 -76.16415 35045 ft 518 kts 44°
2026-05-08 02:59 29.04841 -76.10102 35045 ft 518 kts 44°
2026-05-08 02:59 29.09462 -76.03786 35067 ft 518 kts 44°
2026-05-08 03:00 29.14027 -75.97536 35046 ft 518 kts 44°
2026-05-08 03:00 29.18649 -75.91198 35046 ft 518 kts 44°
2026-05-08 03:01 29.23260 -75.84864 35049 ft 518 kts 44°
2026-05-08 03:01 29.27838 -75.78566 35043 ft 518 kts 44°
2026-05-08 03:02 29.32436 -75.72230 35045 ft 517 kts 44°
2026-05-08 03:02 29.37030 -75.65891 35053 ft 516 kts 44°
2026-05-08 03:03 29.41608 -75.59564 35042 ft 515 kts 44°
2026-05-08 03:03 29.46182 -75.53233 35042 ft 514 kts 44°
2026-05-08 03:04 29.50745 -75.46907 35045 ft 513 kts 44°
2026-05-08 03:04 29.55293 -75.40592 35048 ft 512 kts 45°
2026-05-08 03:05 29.59802 -75.34321 35062 ft 512 kts 45°
2026-05-08 03:05 29.64333 -75.28011 35047 ft 511 kts 45°
2026-05-08 03:06 29.68856 -75.21702 35045 ft 511 kts 45°
2026-05-08 03:06 29.73377 -75.15385 35046 ft 510 kts 45°
2026-05-08 03:07 29.77886 -75.09076 35044 ft 510 kts 45°
2026-05-08 03:07 29.82399 -75.02750 35052 ft 510 kts 45°
2026-05-08 03:08 29.86824 -74.96540 35049 ft 510 kts 45°
2026-05-08 03:08 29.91318 -74.90220 35043 ft 510 kts 46°
2026-05-08 03:09 29.95812 -74.83892 35041 ft 509 kts 46°
2026-05-08 03:09 30.00304 -74.77557 35047 ft 509 kts 46°
2026-05-08 03:10 30.04789 -74.71221 35049 ft 509 kts 46°
2026-05-08 03:10 30.09271 -74.64880 35046 ft 510 kts 46°
2026-05-08 03:11 30.13758 -74.58522 35049 ft 510 kts 46°
2026-05-08 03:11 30.18212 -74.52200 35042 ft 510 kts 46°
2026-05-08 03:12 30.22697 -74.45824 35041 ft 511 kts 46°
2026-05-08 03:12 30.27180 -74.39440 35042 ft 511 kts 46°
2026-05-08 03:13 30.31660 -74.33050 35054 ft 512 kts 45°
2026-05-08 03:13 30.36151 -74.26635 35041 ft 512 kts 45°
2026-05-08 03:14 30.40642 -74.20210 35037 ft 513 kts 45°
2026-05-08 03:14 30.45131 -74.13775 35036 ft 513 kts 45°
2026-05-08 03:15 30.49622 -74.07327 35041 ft 513 kts 46°
2026-05-08 03:15 30.54106 -74.00880 35045 ft 514 kts 45°
2026-05-08 03:16 30.58522 -73.94530 35039 ft 514 kts 44°
2026-05-08 03:16 30.63156 -73.88236 35029 ft 512 kts 43°
2026-05-08 03:17 30.67869 -73.82022 35030 ft 512 kts 43°
2026-05-08 03:17 30.72561 -73.75795 35033 ft 512 kts 43°
2026-05-08 03:18 30.77231 -73.69531 35027 ft 513 kts 43°
2026-05-08 03:18 30.81896 -73.63245 35041 ft 513 kts 43°
2026-05-08 03:19 30.86560 -73.56950 35021 ft 513 kts 43°
2026-05-08 03:19 30.91215 -73.50658 35028 ft 513 kts 43°
2026-05-08 03:20 30.95867 -73.44363 35024 ft 512 kts 43°